Back to catalog

DELTA 1 DEB

LostSSO
NORAD 42089·DEBRIS·🇺🇸 United States

Launched Dec 15, 1968 from Vandenberg Space Force Base

Loading…

Next Passes (next 24 hours)

TLE

StaleSource: Space-Track

Epoch: Feb 20, 2024, 01:24 UTC

1 42089U 68114R   24051.05901893  .00000147  00000-0  15410-2 0  9995
2 42089 102.1649   1.8080 0153703 109.7817 251.9886 12.31162652418604

Track DELTA 1 DEB in real time with AllMySat

Download on the App Store